Вернуться в каталог

STARLINK-11553

АктивенСвязьVLEO
NORAD 63006·PAYLOAD·🇺🇸 United States

Запущен Feb 15, 2025 с Cape Canaveral Space Force Station

Loading…

Ближайшие Пролёты (ближайшие 24 часа)

TLE

СвежийSource: CelesTrak SupGP

Эпоха: Sep 14, 2026, 20:40 UTC

1 63006C 25032B   26257.86159722 -.00049616  00000+0 -38541-3 0  2577
2 63006  43.0000 135.4597 0001645 256.2020  22.3287 15.70860057    15

Отслеживайте STARLINK-11553 в реальном времени с AllMySat

Download on the App Store